Location: Mount Kobau Star Party
(49.1167°N, 119.7333°W)
Time: 10:56:21
(UTC-07:00)

Envisat - Pass Details

Date: 24 April 2026
Orbit: 761 x 762 km, 98.4° (Epoch: 17 May)

Event Time Altitude Azimuth Distance (km) Brightness Sun altitude
Rises 05:14:37 0° 3° (N) 3,233 6.7 -6.1°
Reaches altitude 10° 05:17:28 10° 347° (NNW) 2,303 5.7 -5.7°
Maximum altitude 05:21:03 20° 302° (WNW) 1,710 4.5 -5.2°
Drops below altitude 10° 05:24:38 10° 256° (WSW) 2,291 4.8 -4.6°
Enters shadow 05:25:59 - 247° (WSW) 2,704 5.1 -4.4°
